"Pseudo-MPEC" for P2164z8

Created 2020 Sep 16 22:07:53 UT using Find_Orb

Click here for an explanation of pseudo-MPECs

 
 Astrometry: 
     P2164z8  C2020 09 14`b9%[or)D(iyEO^2`mnjCeAstrometry6tY;\+UBGH!)tfbV/e/.F52
     P2164z8  C2020 09 14nn@.;5y^T5VNHqd.',Uredacted;Ob^G\$dl3O!AwIb+dQ*+@YYBF52
     P2164z8  C2020 09 14*xP1*,;lclickD(IN6UPX,St8rKvtVpSi98gi#LOrt5Uw;)3K3kWF52
     P2164z8 KC2020 09 15g?I_jFYgD/%eS(k(!d6?y+gV6X4WR7v]OwTpucO:2,ygJUWC/bEvL01
     P2164z8 KC2020 09 15?5.-l`Db]\846bcS8#J$cIkg$Hdg0dc)yr6l25ToqF)-/F:!Jd%gL01
     P2164z8 KC2020 09 15gJ/FLs3\]w@]IV)[E]Q^4#hereG[H_\'J+5pW/)mFZ3))D2eiJp`L01
     P2164z8 KC2020 09 15b^c/s'12dlmhw(^.kg!85u+3bJVftN3],ans%:fm7HQEns`ui[ZwL01
     P2164z8 pC2020 09 15_YcYu7lUtS=BB6F6MnAL:'5p8Js5/,yB[657eB.aPxH@%b,335l)L01
     P2164z8  C2020 09 15.30285 01 47 30.68 -22 17 00.5    ~9F7b 19.2 GVNEOCPI52
     P2164z8  C2020 09 15.30359 01 47 30.89 -22 17 10.2    ~9F7b 19.1 GVNEOCPI52
     P2164z8  C2020 09 15.30433 01 47 31.12 -22 17 19.7    ~9F7b 18.6 GVNEOCPI52
     P2164z8  C2020 09 15.30507 01 47 31.34 -22 17 29.1    ~9F7b 18.7 GVNEOCPI52
     P2164z8 1C2020 09 15MVc%bGxR6i=2wY4MW\n6S0vf2/!Xm)N#lS@.Ur`kaX$^7leHOY8\246
     P2164z8 1C2020 09 15C5H0x#hk`qIR$i:Y;!%Y):Ju%L$9d`\yblR@5w,F30iMD*(I`;,?246
     P2164z8 1C2020 09 15[k`?V!/=H;]]9=i_*SO2w3:t0,tOhTA(sQ(O:EQV\4oTW.^d]pqe246
     P2164z8 1C2020 09 15Eu#?$EtEMGP/PEU'!k;JELX^7pTSAsIfHL_Mq3LD[#.ecm#.b'T5246
     P2164z8 1C2020 09 15_8/FYP@\h/oiB%$y3j!P]X8y_l4x^:._M^%0UGs1=S92%8yomO,K246
     P2164z8 1C2020 09 15h+d4tbMhJ2pckZlSOc,)?.nrWaH=2j#PXQ9+?=qibIx/'rc1u\si246
     P2164z8 KC2020 09 16.04291901 51 51.26 -25 07 00.5    ~9G1b 19.7 GVNEOCPI93
     P2164z8 KC2020 09 16.05032801 51 53.98 -25 08 51.6    ~9G1b 20.5 GVNEOCPI93
     P2164z8 KC2020 09 16.05766801 51 56.72 -25 10 40.7    ~9G1b 20.0 GVNEOCPI93
     P2164z8  C2020 09 16.30927 01 53 39.59 -26 14 37.8    ~9G7b 18.9 GVNEOCPI52
     P2164z8  C2020 09 16.30984 01 53 39.85 -26 14 46.9    ~9G7b 18.9 GVNEOCPI52
     P2164z8  C2020 09 16.31041 01 53 40.07 -26 14 55.4    ~9G7b 19.2 GVNEOCPI52
     P2164z8  C2020 09 16.31098 01 53 40.29 -26 15 04.1    ~9G7b 18.9 GVNEOCPI52
     P2164z8 KC2020 09 16T+QV=%n3VarPXj?_,i7;E?4b*cxWfor,-b7=?UD#QUI+vm$5GMoGE23
     P2164z8 KC2020 09 16F)/PFbaSo$j2Cy*g5v@9'q`,,`-YVT%9/`qmOu];r7F_95\4(=+iE23
     P2164z8 KC2020 09 16#7O1K_eexplanation*S):mce`8:wT24TK(CapLYU;\lDGq^3kppE23

Station data:
(246) Klet Observatory-KLENOT  (N48.863293 E14.288100)  Czech Republic.
   1.06-m KLENOT telescope.
(E23) Arcadia  (S33.621199 E151.071190)  Australia/NSW.
(F52) Pan-STARRS 2, Haleakala  (N20.707384 W156.255910)  US/Hawaii. 1.8-m
   Ritchey-Chrétien + CCD.
(I52) Steward Observatory, Mt. Lemmon Station  (N32.442547 W110.788920)
   US/Arizona.  Observers T. A. Pruyne, B. M. Africano, E. J. Christensen, G.
   A. Farneth, D. C. Fuls, A. R. Gibbs, A. D. Grauer, H. Gröller, J. A.
   Johnson, R. A. Kowalski, S. M. Larson, G. J. Leonard, D. Rankin, R. L.
   Seaman, F. C. Shelly. 1.0-m reflector + CCD.
(I93) St Pardon de Conques  (N44.558710 W0.203000)  France.  Observer F.
   Losse. 0.40-m f/3.7 reflector + CCD.
(L01) Višnjan Observatory, Tičan  (N45.290900 E13.749300)  Croatia.
   Observers K. Korlević, E. Pettarin. Measurer E. Pettarin. 1.0-m f/2.9
   reflector + CCD.

Orbital elements:  P2164z8
   Perihelion 2020 Oct 30.690134 +/- 0.227 TT = 16:33:47 (JD 2459153.190134)
Epoch 2020 Sep 16.0 TT = JDT 2459108.5   Earth MOID: 0.0869   Ju: 0.6125
M 348.38278307 +/- 0.7              Ve: 0.0496   Me: 0.0695   Ma: 0.0355
n   0.25995037 +/- 0.0147           Peri.  336.49334 +/- 0.20
a   2.43150829 +/- 0.0918           Node   154.79740 +/- 0.27
e   0.9150651 +/- 0.00421           Incl.   11.82093 +/- 0.21
P   3.79                   H 21.9   G  0.15   U  9.9  
q 0.20651973 +/- 0.00231    Q 4.65649685 +/- 0.175            AutoNEOCP
From 28 observations 2020 Sept. 14-16; mean residual 0".37
Residuals in arcseconds: 
200914 F52  .09+  .11+    200915 I52  .07+  .48-    200916 I93  .25+  .36-    
200914 F52  .16+  .12+    200915 I52  .00   .38-    200916 I52  .16-  .56-    
200914 F52  .17+  .05+    200915 246  .23-  .31-    200916 I52  .29+  .67-    
200915 L01  .32-  .22-    200915 246  1.1-  .23+    200916 I52  .19+  .19-    
200915 L01  .18-  .12+    200915 246  .10+  .91+    200916 I52  .10+  .10+    
200915 L01  .01-  .24+    200915 246  .44-  .85+    200916 E23  .21-  .31+    
200915 L01  .30-  .08+    200915 246  .49+  .95+    200916 E23  .20+  .11+    
200915 L01  .00   .06-    200915 246  .01-  .46+    200916 E23  .01-  .21-    
200915 I52  .23+  .26-    200916 I93  .32+  .18+    
200915 I52  .01+  .47-    200916 I93  .00   .64-    

Ephemerides (geocentric):
Date (UTC) HH   RA              Dec         delta   r     elong  mag " sig PA
---- -- -- --  -------------   -----------  ------ ------ -----  --- ---- ---
2020 09 16 22  01 58 14.878   -29 03 09.90  .13679 1.1097 137.4 19.3 .318  14
2020 09 16 23  01 58 35.808   -29 15 36.00  .13616 1.1090 137.2 19.3 .372  10
2020 09 17 00  01 58 57.009   -29 28 08.75  .13553 1.1082 137.1 19.3 .429   7
2020 09 17 01  01 59 18.488   -29 40 48.22  .13490 1.1075 136.9 19.3 .489   5
2020 09 17 02  01 59 40.250   -29 53 34.47  .13428 1.1068 136.7 19.3 .553   3
2020 09 17 03  02 00 02.300   -30 06 27.56  .13366 1.1060 136.6 19.3 .620   1
2020 09 17 04  02 00 24.645   -30 19 27.56  .13304 1.1053 136.4 19.3 .690   0
2020 09 17 05  02 00 47.289   -30 32 34.54  .13242 1.1045 136.2 19.3 .764 179
2020 09 17 06  02 01 10.241   -30 45 48.56  .13180 1.1038 136.1 19.3 .840 178
2020 09 17 07  02 01 33.505   -30 59 09.68  .13119 1.1030 135.9 19.3 .920 177
2020 09 17 08  02 01 57.088   -31 12 37.97  .13058 1.1023 135.7 19.3 1.00 176
2020 09 17 09  02 02 20.997   -31 26 13.49  .12997 1.1015 135.5 19.2 1.09 175
2020 09 17 10  02 02 45.240   -31 39 56.31  .12937 1.1008 135.3 19.2 1.18 174
2020 09 17 11  02 03 09.822   -31 53 46.49  .12876 1.1001 135.1 19.2 1.27 174
2020 09 17 12  02 03 34.751   -32 07 44.09  .12816 1.0993 135.0 19.2 1.37 173
2020 09 17 13  02 04 00.035   -32 21 49.19  .12756 1.0986 134.8 19.2 1.47 173
2020 09 17 14  02 04 25.682   -32 36 01.84  .12696 1.0978 134.6 19.2 1.57 172
2020 09 17 15  02 04 51.698   -32 50 22.11  .12637 1.0971 134.4 19.2 1.68 172
2020 09 17 16  02 05 18.093   -33 04 50.07  .12578 1.0963 134.2 19.2 1.79 171
2020 09 17 17  02 05 44.874   -33 19 25.76  .12519 1.0956 134.0 19.2 1.91 171
2020 09 17 18  02 06 12.051   -33 34 09.27  .12461 1.0948 133.8 19.2 2.02 171
2020 09 17 19  02 06 39.632   -33 49 00.64  .12402 1.0941 133.6 19.2 2.15 170
2020 09 17 20  02 07 07.626   -34 03 59.95  .12344 1.0933 133.3 19.2 2.28 170
2020 09 17 21  02 07 36.042   -34 19 07.24  .12286 1.0926 133.1 19.2 2.41 169
2020 09 17 22  02 08 04.890   -34 34 22.59  .12229 1.0918 132.9 19.2 2.54 169
2020 09 17 23  02 08 34.180   -34 49 46.05  .12172 1.0911 132.7 19.2 2.68 169
2020 09 18 00  02 09 03.923   -35 05 17.68  .12115 1.0904 132.5 19.2 2.83 169
2020 09 18 01  02 09 34.128   -35 20 57.54  .12058 1.0896 132.3 19.1 2.98 168
2020 09 18 02  02 10 04.807   -35 36 45.68  .12002 1.0889 132.0 19.1 3.13 168
2020 09 18 03  02 10 35.970   -35 52 42.16  .11946 1.0881 131.8 19.1 3.29 168
2020 09 18 04  02 11 07.630   -36 08 47.04  .11890 1.0874 131.6 19.1 3.45 167
2020 09 18 05  02 11 39.797   -36 25 00.36  .11834 1.0866 131.3 19.1 3.62 167
2020 09 18 06  02 12 12.485   -36 41 22.19  .11779 1.0859 131.1 19.1 3.79 167
2020 09 18 07  02 12 45.705   -36 57 52.56  .11724 1.0851 130.8 19.1 3.97 167
2020 09 18 08  02 13 19.472   -37 14 31.54  .11670 1.0844 130.6 19.1 4.15 166
2020 09 18 09  02 13 53.797   -37 31 19.16  .11616 1.0836 130.4 19.1 4.34 166
2020 09 18 10  02 14 28.696   -37 48 15.47  .11562 1.0829 130.1 19.1 4.54 166
2020 09 18 11  02 15 04.182   -38 05 20.52  .11508 1.0821 129.8 19.1 4.73 166
2020 09 18 12  02 15 40.270   -38 22 34.34  .11455 1.0814 129.6 19.1 4.94 166
2020 09 18 13  02 16 16.976   -38 39 56.99  .11402 1.0806 129.3 19.1 5.15 165
2020 09 18 14  02 16 54.314   -38 57 28.48  .11350 1.0798 129.1 19.1 5.37 165
2020 09 18 15  02 17 32.302   -39 15 08.86  .11298 1.0791 128.8 19.1 5.59 165
2020 09 18 16  02 18 10.955   -39 32 58.17  .11246 1.0783 128.5 19.1 5.82 165
2020 09 18 17  02 18 50.292   -39 50 56.42  .11195 1.0776 128.3 19.1 6.05 164
2020 09 18 18  02 19 30.331   -40 09 03.66  .11144 1.0768 128.0 19.1 6.29 164
2020 09 18 19  02 20 11.089   -40 27 19.89  .11093 1.0761 127.7 19.1 6.54 164
2020 09 18 20  02 20 52.585   -40 45 45.14  .11043 1.0753 127.4 19.1 6.79 164
2020 09 18 21  02 21 34.841   -41 04 19.44  .10993 1.0746 127.1 19.1 7.05 164